ACA1149 CYQB-CYUL

Flight info

Callsign ACA1149
Flight time 0h 31m
Altitude 20000
Route TIBOS ROCKT3
Aircraft A320/M-SDE3FGHIRWY/LB1

Departure

Time 2026-05-07 12:54
Airport Quebec Jean Lesage International Airport (CYQB)

Arrival

Time 2026-05-07 13:26
Airport Montreal / Pierre Elliott Trudeau International Airport (CYUL)
Time Latitude Longitude Altitude Speed Heading
2026-05-07 12:27 46.79223 -71.38478 253 ft 0 kts 99°
2026-05-07 12:44 46.79227 -71.38508 253 ft 4 kts 99°
2026-05-07 12:44 46.79229 -71.38546 253 ft 4 kts 82°
2026-05-07 12:44 46.79220 -71.38580 253 ft 4 kts 40°
2026-05-07 12:45 46.79206 -71.38592 253 ft 1 kts 11°
2026-05-07 12:45 46.79203 -71.38592 253 ft 0 kts 11°
2026-05-07 12:48 46.79231 -71.38585 253 ft 9 kts 11°
2026-05-07 12:49 46.79290 -71.38568 253 ft 8 kts 11°
2026-05-07 12:49 46.79344 -71.38553 253 ft 7 kts 11°
2026-05-07 12:49 46.79394 -71.38564 253 ft 9 kts 334°
2026-05-07 12:49 46.79464 -71.38528 253 ft 13 kts 44°
2026-05-07 12:50 46.79527 -71.38438 253 ft 12 kts 45°
2026-05-07 12:50 46.79573 -71.38344 253 ft 11 kts 73°
2026-05-07 12:50 46.79608 -71.38254 253 ft 10 kts 45°
2026-05-07 12:50 46.79656 -71.38186 253 ft 9 kts 43°
2026-05-07 12:51 46.79700 -71.38126 253 ft 8 kts 44°
2026-05-07 12:51 46.79740 -71.38070 253 ft 8 kts 38°
2026-05-07 12:51 46.79791 -71.38047 253 ft 8 kts
2026-05-07 12:51 46.79850 -71.38044 253 ft 8 kts
2026-05-07 12:52 46.79879 -71.38043 253 ft 0 kts
2026-05-07 12:52 46.79886 -71.38043 253 ft 4 kts
2026-05-07 12:52 46.79934 -71.38050 253 ft 7 kts 341°
2026-05-07 12:53 46.79971 -71.38089 253 ft 6 kts 316°
2026-05-07 12:53 46.79977 -71.38140 253 ft 7 kts 238°
2026-05-07 12:53 46.79959 -71.38166 253 ft 0 kts 225°
2026-05-07 12:53 46.79943 -71.38191 253 ft 21 kts 225°
2026-05-07 12:54 46.79637 -71.38631 253 ft 98 kts 224°
2026-05-07 12:54 46.79002 -71.39543 288 ft 151 kts 224°
2026-05-07 12:54 46.78289 -71.40604 1026 ft 144 kts 227°
2026-05-07 12:54 46.77595 -71.41679 1780 ft 147 kts 227°
2026-05-07 12:55 46.76854 -71.42832 2245 ft 168 kts 227°
2026-05-07 12:55 46.75998 -71.44153 2630 ft 191 kts 227°
2026-05-07 12:55 46.75008 -71.45631 3075 ft 216 kts 220°
2026-05-07 12:55 46.73726 -71.47011 3608 ft 241 kts 215°
2026-05-07 12:56 46.72291 -71.48412 4416 ft 253 kts 214°
2026-05-07 12:56 46.70807 -71.49823 5413 ft 257 kts 215°
2026-05-07 12:56 46.69299 -71.51255 6397 ft 261 kts 215°
2026-05-07 12:56 46.67767 -71.52708 7352 ft 264 kts 215°
2026-05-07 12:57 46.66214 -71.54181 8349 ft 267 kts 215°
2026-05-07 12:57 46.64675 -71.55650 9346 ft 269 kts 215°
2026-05-07 12:57 46.63109 -71.57155 10251 ft 274 kts 216°
2026-05-07 12:57 46.61453 -71.58754 10622 ft 296 kts 216°
2026-05-07 12:58 46.59699 -71.60446 11305 ft 305 kts 216°
2026-05-07 12:58 46.57920 -71.62155 12209 ft 307 kts 216°
2026-05-07 12:58 46.56134 -71.63865 13161 ft 307 kts 216°
2026-05-07 12:58 46.54347 -71.65575 14042 ft 308 kts 216°
2026-05-07 12:59 46.52554 -71.67295 14827 ft 309 kts 216°
2026-05-07 12:59 46.50755 -71.69020 15618 ft 311 kts 216°
2026-05-07 12:59 46.48968 -71.70731 16393 ft 312 kts 215°
2026-05-07 12:59 46.47149 -71.72467 17166 ft 314 kts 215°
2026-05-07 13:00 46.45311 -71.74220 17940 ft 316 kts 215°
2026-05-07 13:00 46.43466 -71.75980 18606 ft 318 kts 215°
2026-05-07 13:00 46.41604 -71.77754 19256 ft 321 kts 215°
2026-05-07 13:00 46.39735 -71.79548 19705 ft 323 kts 217°
2026-05-07 13:01 46.38034 -71.81620 19777 ft 313 kts 225°
2026-05-07 13:01 46.36487 -71.83777 19788 ft 306 kts 224°
2026-05-07 13:01 46.34973 -71.85872 19789 ft 304 kts 224°
2026-05-07 13:01 46.33443 -71.87982 19787 ft 303 kts 224°
2026-05-07 13:02 46.31918 -71.90085 19793 ft 303 kts 224°
2026-05-07 13:02 46.30395 -71.92183 19792 ft 302 kts 224°
2026-05-07 13:02 46.28869 -71.94284 19792 ft 302 kts 224°
2026-05-07 13:02 46.27858 -71.95674 19792 ft 302 kts 224°
2026-05-07 13:03 46.26333 -71.97770 19794 ft 302 kts 224°
2026-05-07 13:03 46.24809 -71.99860 19794 ft 302 kts 224°
2026-05-07 13:03 46.23281 -72.01955 19794 ft 302 kts 224°
2026-05-07 13:03 46.21755 -72.04045 19794 ft 302 kts 224°
2026-05-07 13:04 46.20233 -72.06138 19798 ft 302 kts 224°
2026-05-07 13:04 46.18708 -72.08229 19797 ft 302 kts 224°
2026-05-07 13:04 46.17182 -72.10321 19776 ft 302 kts 225°
2026-05-07 13:04 46.15657 -72.12408 19788 ft 302 kts 225°
2026-05-07 13:05 46.14154 -72.14467 19791 ft 301 kts 225°
2026-05-07 13:05 46.12634 -72.16547 19787 ft 301 kts 225°
2026-05-07 13:05 46.11111 -72.18624 19798 ft 301 kts 225°
2026-05-07 13:05 46.09589 -72.20695 19804 ft 300 kts 225°
2026-05-07 13:06 46.08065 -72.22768 19809 ft 301 kts 225°
2026-05-07 13:06 46.06543 -72.24837 19802 ft 301 kts 225°
2026-05-07 13:06 46.05020 -72.26905 19792 ft 302 kts 225°
2026-05-07 13:06 46.03488 -72.28983 19439 ft 301 kts 225°
2026-05-07 13:07 46.01987 -72.31019 19096 ft 300 kts 224°
2026-05-07 13:07 46.00471 -72.33073 18700 ft 299 kts 224°
2026-05-07 13:07 45.98962 -72.35118 18306 ft 297 kts 224°
2026-05-07 13:07 45.97461 -72.37154 17892 ft 296 kts 224°
2026-05-07 13:08 45.95963 -72.39184 17443 ft 295 kts 225°
2026-05-07 13:08 45.94665 -72.41448 17005 ft 294 kts 236°
2026-05-07 13:08 45.93676 -72.44018 16568 ft 294 kts 241°
2026-05-07 13:08 45.92722 -72.46607 16156 ft 293 kts 240°
2026-05-07 13:09 45.91762 -72.49194 15732 ft 293 kts 240°
2026-05-07 13:09 45.90799 -72.51778 15319 ft 292 kts 240°
2026-05-07 13:09 45.89838 -72.54348 14910 ft 292 kts 241°
2026-05-07 13:09 45.88880 -72.56915 14504 ft 291 kts 241°
2026-05-07 13:10 45.87928 -72.59467 14111 ft 289 kts 241°
2026-05-07 13:10 45.86981 -72.62001 13717 ft 287 kts 241°
2026-05-07 13:10 45.86037 -72.64517 13289 ft 286 kts 241°
2026-05-07 13:10 45.85098 -72.67023 12846 ft 284 kts 241°
2026-05-07 13:11 45.84165 -72.69513 12419 ft 282 kts 241°
2026-05-07 13:11 45.83236 -72.71987 11992 ft 281 kts 241°
2026-05-07 13:11 45.82324 -72.74422 11575 ft 280 kts 242°
2026-05-07 13:11 45.81401 -72.76881 11159 ft 280 kts 242°
2026-05-07 13:12 45.80477 -72.79340 10745 ft 278 kts 241°
2026-05-07 13:12 45.79574 -72.81742 10340 ft 272 kts 242°
2026-05-07 13:12 45.78677 -72.84122 10014 ft 270 kts 242°
2026-05-07 13:12 45.77790 -72.86472 9712 ft 266 kts 242°
2026-05-07 13:13 45.76913 -72.88797 9419 ft 263 kts 242°
2026-05-07 13:13 45.76038 -72.91108 9122 ft 265 kts 242°
2026-05-07 13:13 45.75155 -72.93428 8821 ft 265 kts 242°
2026-05-07 13:13 45.74287 -72.95709 8527 ft 263 kts 242°
2026-05-07 13:14 45.73417 -72.98004 8228 ft 261 kts 243°
2026-05-07 13:14 45.72556 -73.00285 7936 ft 260 kts 245°
2026-05-07 13:14 45.71911 -73.02691 7645 ft 259 kts 256°
2026-05-07 13:14 45.71596 -73.05222 7371 ft 257 kts 262°
2026-05-07 13:15 45.71339 -73.07723 7114 ft 250 kts 262°
2026-05-07 13:15 45.71082 -73.10157 6863 ft 244 kts 262°
2026-05-07 13:15 45.70811 -73.12546 6604 ft 243 kts 259°
2026-05-07 13:15 45.70393 -73.14878 6346 ft 242 kts 258°
2026-05-07 13:16 45.69969 -73.17199 6098 ft 240 kts 258°
2026-05-07 13:16 45.69548 -73.19511 5978 ft 240 kts 257°
2026-05-07 13:16 45.69135 -73.21785 5911 ft 233 kts 258°
2026-05-07 13:16 45.68730 -73.24009 5652 ft 229 kts 257°
2026-05-07 13:17 45.68333 -73.26200 5432 ft 227 kts 257°
2026-05-07 13:17 45.67937 -73.28374 5196 ft 226 kts 257°
2026-05-07 13:17 45.67543 -73.30526 4963 ft 225 kts 257°
2026-05-07 13:17 45.67148 -73.32693 4731 ft 225 kts 257°
2026-05-07 13:18 45.66753 -73.34854 4489 ft 224 kts 257°
2026-05-07 13:18 45.66363 -73.36978 4248 ft 217 kts 257°
2026-05-07 13:18 45.65982 -73.39044 4006 ft 213 kts 257°
2026-05-07 13:18 45.65607 -73.41081 3770 ft 210 kts 258°
2026-05-07 13:19 45.65240 -73.43087 3537 ft 206 kts 258°
2026-05-07 13:19 45.64882 -73.45034 3307 ft 203 kts 258°
2026-05-07 13:19 45.64524 -73.46964 3073 ft 198 kts 258°
2026-05-07 13:19 45.64180 -73.48820 2986 ft 188 kts 258°
2026-05-07 13:20 45.63855 -73.50570 3010 ft 176 kts 258°
2026-05-07 13:20 45.63546 -73.52236 2991 ft 172 kts 258°
2026-05-07 13:20 45.63107 -73.53813 2975 ft 171 kts 239°
2026-05-07 13:20 45.62320 -73.55065 2982 ft 168 kts 231°
2026-05-07 13:21 45.61495 -73.56225 2989 ft 165 kts 229°
2026-05-07 13:21 45.60657 -73.57358 2990 ft 165 kts 230°
2026-05-07 13:21 45.59839 -73.58446 2982 ft 158 kts 229°
2026-05-07 13:21 45.59035 -73.59510 2968 ft 157 kts 229°
2026-05-07 13:22 45.58234 -73.60567 2847 ft 157 kts 230°
2026-05-07 13:22 45.57437 -73.61618 2644 ft 156 kts 230°
2026-05-07 13:22 45.56664 -73.62634 2452 ft 147 kts 231°
2026-05-07 13:22 45.55918 -73.63617 2253 ft 144 kts 229°
2026-05-07 13:23 45.55182 -73.64586 2057 ft 143 kts 230°
2026-05-07 13:23 45.54457 -73.65539 1862 ft 140 kts 229°
2026-05-07 13:23 45.53782 -73.66424 1696 ft 127 kts 229°
2026-05-07 13:23 45.53148 -73.67258 1510 ft 122 kts 228°
2026-05-07 13:24 45.52537 -73.68062 1340 ft 118 kts 228°
2026-05-07 13:24 45.51928 -73.68863 1161 ft 121 kts 227°
2026-05-07 13:24 45.51321 -73.69657 1006 ft 118 kts 227°
2026-05-07 13:24 45.50728 -73.70430 807 ft 115 kts 227°
2026-05-07 13:25 45.50144 -73.71212 650 ft 115 kts 227°
2026-05-07 13:25 45.49548 -73.71991 457 ft 115 kts 226°
2026-05-07 13:25 45.48946 -73.72776 301 ft 117 kts 227°
2026-05-07 13:25 45.48352 -73.73557 166 ft 115 kts 227°
2026-05-07 13:26 45.47802 -73.74289 112 ft 92 kts 222°
2026-05-07 13:26 45.47458 -73.74739 111 ft 39 kts 222°
2026-05-07 13:26 45.47312 -73.74902 113 ft 21 kts 205°
2026-05-07 13:26 45.47166 -73.74964 112 ft 20 kts 194°
2026-05-07 13:27 45.47072 -73.74996 111 ft 12 kts 193°
2026-05-07 13:27 45.46998 -73.75020 110 ft 8 kts 192°
2026-05-07 13:27 45.46990 -73.75022 110 ft 1 kts 192°
2026-05-07 13:27 45.46960 -73.75032 110 ft 8 kts 192°
2026-05-07 13:28 45.46886 -73.75041 109 ft 13 kts 179°
2026-05-07 13:28 45.46787 -73.75035 109 ft 16 kts 177°
2026-05-07 13:28 45.46665 -73.75028 108 ft 19 kts 178°
2026-05-07 13:28 45.46523 -73.75019 106 ft 22 kts 178°
2026-05-07 13:29 45.46377 -73.75010 105 ft 19 kts 177°
2026-05-07 13:29 45.46245 -73.75003 105 ft 15 kts 178°
2026-05-07 13:29 45.46157 -73.75032 104 ft 14 kts 236°
2026-05-07 13:29 45.46146 -73.75187 102 ft 17 kts 269°
2026-05-07 13:30 45.46143 -73.75320 101 ft 11 kts 264°
2026-05-07 13:30 45.46083 -73.75365 103 ft 11 kts 174°
2026-05-07 13:30 45.46034 -73.75306 105 ft 9 kts 118°
2026-05-07 13:30 45.46010 -73.75233 105 ft 8 kts 110°
2026-05-07 13:31 45.46007 -73.75141 105 ft 10 kts 84°
2026-05-07 13:31 45.46009 -73.75045 105 ft 8 kts 95°
2026-05-07 13:31 45.45987 -73.74977 104 ft 7 kts 121°
2026-05-07 13:31 45.45981 -73.74910 105 ft 7 kts 89°
2026-05-07 13:32 45.45962 -73.74854 104 ft 6 kts 155°
2026-05-07 13:32 45.45940 -73.74849 105 ft 2 kts 175°
2026-05-07 13:32 45.45930 -73.74848 105 ft 0 kts 176°